| time (UTC) | temp C | wind direction | speed KPH | gust KPH | rain 1hr cm | rain 24hr cm | rain mn cm | humidity % | barometer mb |
| 20260507021054 | 18 | 316 | 3.2 | 4.8 | 0.00 | 0.00 | 0.00 | 70 | 1016.0 |
| 20260507020554 | 18 | 323 | 1.6 | 3.2 | 0.00 | 0.00 | 0.00 | 70 | 1016.0 |
| 20260507020055 | 18 | 316 | 3.2 | 4.8 | 0.00 | 0.00 | 0.00 | 67 | 1015.9 |
| 20260507015556 | 18 | 339 | 1.6 | 3.2 | 0.00 | 0.00 | 0.00 | 68 | 1015.9 |
| 20260507015054 | 18 | 327 | 3.2 | 6.4 | 0.00 | 0.00 | 0.00 | 69 | 1015.9 |
| 20260507014555 | 18 | 328 | 3.2 | 4.8 | 0.00 | 0.00 | 0.00 | 67 | 1015.8 |
| 20260507014054 | 18 | 328 | 3.2 | 6.4 | 0.00 | 0.00 | 0.00 | 66 | 1015.9 |
| 20260507013554 | 18 | 332 | 3.2 | 6.4 | 0.00 | 0.00 | 0.00 | 66 | 1015.8 |
| 20260507013055 | 19 | 324 | 4.8 | 8.0 | 0.00 | 0.00 | 0.00 | 65 | 1015.9 |
| 20260507012554 | 19 | 329 | 4.8 | 8.0 | 0.00 | 0.00 | 0.00 | 65 | 1015.8 |
| 20260507012054 | 19 | 321 | 3.2 | 4.8 | 0.00 | 0.00 | 0.00 | 65 | 1015.8 |
| 20260507011554 | 19 | 316 | 3.2 | 6.4 | 0.00 | 0.00 | 0.00 | 65 | 1015.8 |
| 20260507011055 | 20 | 322 | 3.2 | 4.8 | 0.00 | 0.00 | 0.00 | 63 | 1015.8 |
| 20260507010554 | 19 | 319 | 1.6 | 3.2 | 0.00 | 0.00 | 0.00 | 63 | 1015.8 |
| 20260507010056 | 19 | 325 | 3.2 | 9.7 | 0.00 | 0.00 | 0.00 | 63 | 1015.7 |
| 20260507005554 | 20 | 330 | 6.4 | 9.7 | 0.00 | 0.00 | 0.00 | 61 | 1015.7 |
| 20260507005054 | 20 | 326 | 3.2 | 6.4 | 0.00 | 0.00 | 0.00 | 61 | 1015.7 |
| 20260507004554 | 20 | 328 | 6.4 | 12.9 | 0.00 | 0.00 | 0.00 | 61 | 1015.7 |
| 20260507004054 | 20 | 333 | 4.8 | 8.0 | 0.00 | 0.00 | 0.00 | 62 | 1015.7 |
| 20260507003554 | 20 | 324 | 4.8 | 9.7 | 0.00 | 0.00 | 0.00 | 62 | 1015.6 |
| 20260507003054 | 20 | 316 | 1.6 | 6.4 | 0.00 | 0.00 | 0.00 | 62 | 1015.6 |
| 20260507002555 | 20 | 330 | 4.8 | 9.7 | 0.00 | 0.00 | 0.00 | 62 | 1015.6 |
| 20260507002054 | 20 | 326 | 6.4 | 12.9 | 0.00 | 0.00 | 0.00 | 61 | 1015.5 |
| 20260507001554 | 20 | 322 | 3.2 | 4.8 | 0.00 | 0.00 | 0.00 | 62 | 1015.5 |
| 20260507001054 | 21 | 325 | 4.8 | 8.0 | 0.00 | 0.00 | 0.00 | 61 | 1015.5 |
| 20260507000554 | 21 | 308 | 3.2 | 4.8 | 0.00 | 0.00 | 0.00 | 61 | 1015.4 |
| 20260507000054 | 21 | 305 | 3.2 | 6.4 | 0.00 | 0.00 | 0.00 | 60 | 1015.5 |
| 20260506235554 | 21 | 308 | 3.2 | 6.4 | 0.00 | 0.00 | 0.00 | 60 | 1015.5 |
| 20260506235055 | 21 | 313 | 3.2 | 8.0 | 0.00 | 0.00 | 0.00 | 60 | 1015.5 |
| 20260506234555 | 20 | 322 | 3.2 | 8.0 | 0.00 | 0.00 | 0.00 | 61 | 1015.5 |
| 20260506234054 | 21 | 307 | 6.4 | 9.7 | 0.00 | 0.00 | 0.00 | 59 | 1015.5 |
| 20260506233554 | 21 | 302 | 1.6 | 4.8 | 0.00 | 0.00 | 0.00 | 60 | 1015.5 |
| 20260506233054 | 21 | 330 | 6.4 | 8.0 | 0.00 | 0.00 | 0.00 | 61 | 1015.5 |
| 20260506232554 | 21 | 326 | 4.8 | 9.7 | 0.00 | 0.00 | 0.00 | 61 | 1015.5 |
| 20260506232055 | 21 | 320 | 6.4 | 11.3 | 0.00 | 0.00 | 0.00 | 62 | 1015.5 |
| 20260506231554 | 21 | 320 | 3.2 | 4.8 | 0.00 | 0.00 | 0.00 | 61 | 1015.6 |
| 20260506231054 | 21 | 307 | 3.2 | 8.0 | 0.00 | 0.00 | 0.00 | 60 | 1015.6 |
| 20260506230554 | 21 | 287 | 3.2 | 4.8 | 0.00 | 0.00 | 0.00 | 60 | 1015.6 |
| 20260506230054 | 21 | 274 | 1.6 | 4.8 | 0.00 | 0.00 | 0.00 | 60 | 1015.6 |
| 20260506225554 | 21 | 309 | 3.2 | 6.4 | 0.00 | 0.00 | 0.00 | 60 | 1015.6 |
| 20260506225055 | 21 | 307 | 3.2 | 6.4 | 0.00 | 0.00 | 0.00 | 60 | 1015.7 |
| 20260506224554 | 21 | 296 | 4.8 | 9.7 | 0.00 | 0.00 | 0.00 | 61 | 1015.7 |
| 20260506224055 | 21 | 319 | 4.8 | 8.0 | 0.00 | 0.00 | 0.00 | 61 | 1015.7 |
| 20260506223555 | 21 | 309 | 3.2 | 4.8 | 0.00 | 0.00 | 0.00 | 60 | 1015.7 |
| 20260506223054 | 21 | 316 | 3.2 | 6.4 | 0.00 | 0.00 | 0.00 | 60 | 1015.8 |
| 20260506222554 | 22 | 302 | 3.2 | 4.8 | 0.00 | 0.00 | 0.00 | 59 | 1015.8 |
| 20260506222054 | 22 | 216 | 1.6 | 4.8 | 0.00 | 0.00 | 0.00 | 59 | 1015.8 |
| 20260506221554 | 22 | 300 | 3.2 | 6.4 | 0.00 | 0.00 | 0.00 | 58 | 1015.9 |
| 20260506221054 | 22 | 311 | 3.2 | 4.8 | 0.00 | 0.00 | 0.00 | 59 | 1015.9 |
| 20260506220555 | 22 | 317 | 3.2 | 6.4 | 0.00 | 0.00 | 0.00 | 57 | 1016.0 |
| 20260506220054 | 22 | 318 | 1.6 | 3.2 | 0.00 | 0.00 | 0.00 | 58 | 1016.0 |
| 20260506215554 | 22 | 302 | 1.6 | 3.2 | 0.00 | 0.00 | 0.00 | 58 | 1016.0 |
| 20260506215054 | 22 | 333 | 3.2 | 9.7 | 0.00 | 0.00 | 0.00 | 57 | 1016.0 |
| 20260506214554 | 22 | 303 | 3.2 | 11.3 | 0.00 | 0.00 | 0.00 | 57 | 1016.0 |
| 20260506214054 | 22 | 302 | 3.2 | 6.4 | 0.00 | 0.00 | 0.00 | 57 | 1016.1 |
| 20260506213554 | 22 | 270 | 3.2 | 8.0 | 0.00 | 0.00 | 0.00 | 57 | 1016.1 |
| 20260506213057 | 22 | 316 | 3.2 | 6.4 | 0.00 | 0.00 | 0.00 | 57 | 1016.2 |
| 20260506212554 | 22 | 305 | 3.2 | 6.4 | 0.00 | 0.00 | 0.00 | 59 | 1016.2 |
| 20260506212054 | 22 | 310 | 3.2 | 4.8 | 0.00 | 0.00 | 0.00 | 58 | 1016.2 |
| 20260506211555 | 22 | 328 | 4.8 | 8.0 | 0.00 | 0.00 | 0.00 | 58 | 1016.2 |
| 20260506211055 | 22 | 317 | 6.4 | 9.7 | 0.00 | 0.00 | 0.00 | 57 | 1016.2 |
| 20260506210555 | 22 | 299 | 1.6 | 3.2 | 0.00 | 0.00 | 0.00 | 57 | 1016.3 |
| 20260506210055 | 22 | 316 | 1.6 | 4.8 | 0.00 | 0.00 | 0.00 | 57 | 1016.3 |
| 20260506205554 | 22 | 301 | 1.6 | 4.8 | 0.00 | 0.00 | 0.00 | 58 | 1016.3 |
| 20260506205054 | 22 | 190 | 1.6 | 4.8 | 0.00 | 0.00 | 0.00 | 58 | 1016.4 |
| 20260506204554 | 22 | 328 | 1.6 | 4.8 | 0.00 | 0.00 | 0.00 | 58 | 1016.3 |
| 20260506204054 | 22 | 299 | 1.6 | 4.8 | 0.00 | 0.00 | 0.00 | 57 | 1016.4 |
| 20260506203554 | 22 | 315 | 3.2 | 8.0 | 0.00 | 0.00 | 0.00 | 58 | 1016.3 |
| 20260506203054 | 22 | 337 | 6.4 | 12.9 | 0.00 | 0.00 | 0.00 | 58 | 1016.3 |
| 20260506202555 | 22 | 313 | 1.6 | 4.8 | 0.00 | 0.00 | 0.00 | 56 | 1016.4 |
| 20260506202055 | 23 | 314 | 1.6 | 4.8 | 0.00 | 0.00 | 0.00 | 56 | 1016.5 |
| 20260506201556 | 23 | 225 | 4.8 | 9.7 | 0.00 | 0.00 | 0.00 | 55 | 1016.4 |
| 20260506201057 | 23 | 300 | 3.2 | 6.4 | 0.00 | 0.00 | 0.00 | 55 | 1016.4 |
| 20260506200555 | 23 | 226 | 1.6 | 4.8 | 0.00 | 0.00 | 0.00 | 55 | 1016.5 |
| 20260506200054 | 23 | 288 | 3.2 | 9.7 | 0.00 | 0.00 | 0.00 | 53 | 1016.5 |
| 20260506195554 | 23 | 128 | 1.6 | 3.2 | 0.00 | 0.00 | 0.00 | 54 | 1016.5 |
| 20260506195054 | 23 | 317 | 1.6 | 4.8 | 0.00 | 0.00 | 0.00 | 55 | 1016.6 |
| 20260506194554 | 23 | 191 | 3.2 | 8.0 | 0.00 | 0.00 | 0.00 | 54 | 1016.6 |
| 20260506194054 | 23 | 327 | 3.2 | 6.4 | 0.00 | 0.00 | 0.00 | 54 | 1016.7 |
| 20260506193554 | 23 | 307 | 3.2 | 4.8 | 0.00 | 0.00 | 0.00 | 53 | 1016.7 |
| 20260506193054 | 23 | 214 | 1.6 | 6.4 | 0.00 | 0.00 | 0.00 | 54 | 1016.8 |
| 20260506192554 | 23 | 304 | 3.2 | 6.4 | 0.00 | 0.00 | 0.00 | 53 | 1016.8 |
| 20260506192054 | 23 | 184 | 1.6 | 4.8 | 0.00 | 0.00 | 0.00 | 54 | 1016.8 |
| 20260506191555 | 23 | 201 | 1.6 | 3.2 | 0.00 | 0.00 | 0.00 | 53 | 1016.9 |
| 20260506191055 | 23 | 308 | 3.2 | 9.7 | 0.00 | 0.00 | 0.00 | 53 | 1016.9 |
| 20260506190125 | 22 | 319 | 3.2 | 4.8 | 0.00 | 0.00 | 0.00 | 53 | 1017.0 |
| 20260506185556 | 22 | 308 | 3.2 | 4.8 | 0.00 | 0.00 | 0.00 | 54 | 1017.1 |
| 20260506185055 | 22 | 350 | 6.4 | 11.3 | 0.00 | 0.00 | 0.00 | 54 | 1017.0 |
| 20260506184555 | 22 | 192 | 4.8 | 9.7 | 0.00 | 0.00 | 0.00 | 55 | 1017.1 |
| 20260506184054 | 22 | 17 | 1.6 | 4.8 | 0.00 | 0.00 | 0.00 | 57 | 1017.2 |
| 20260506183555 | 22 | 332 | 3.2 | 4.8 | 0.00 | 0.00 | 0.00 | 55 | 1017.3 |
| 20260506183054 | 21 | 90 | 1.6 | 4.8 | 0.00 | 0.00 | 0.00 | 55 | 1017.4 |
| 20260506182554 | 21 | 327 | 4.8 | 6.4 | 0.00 | 0.00 | 0.00 | 54 | 1017.4 |
| 20260506182054 | 21 | 347 | 8.0 | 12.9 | 0.00 | 0.00 | 0.00 | 53 | 1017.4 |
| 20260506181555 | 21 | 311 | 1.6 | 4.8 | 0.00 | 0.00 | 0.00 | 55 | 1017.4 |
| 20260506181054 | 21 | 327 | 3.2 | 6.4 | 0.00 | 0.00 | 0.00 | 55 | 1017.5 |
| 20260506180555 | 21 | 345 | 4.8 | 9.7 | 0.00 | 0.00 | 0.00 | 55 | 1017.6 |
| 20260506180054 | 21 | 333 | 3.2 | 9.7 | 0.00 | 0.00 | 0.00 | 56 | 1017.6 |
| 20260506175554 | 21 | 327 | 3.2 | 8.0 | 0.00 | 0.00 | 0.00 | 56 | 1017.7 |
| 20260506175054 | 20 | 7 | 4.8 | 8.0 | 0.00 | 0.00 | 0.00 | 57 | 1017.7 |
| 20260506174554 | 20 | 350 | 4.8 | 9.7 | 0.00 | 0.00 | 0.00 | 57 | 1017.8 |
| 20260506174054 | 20 | 315 | 1.6 | 4.8 | 0.00 | 0.00 | 0.00 | 58 | 1017.8 |
| 20260506173555 | 20 | 318 | 3.2 | 6.4 | 0.00 | 0.00 | 0.00 | 57 | 1017.8 |
| 20260506173055 | 20 | 314 | 3.2 | 6.4 | 0.00 | 0.00 | 0.00 | 57 | 1017.9 |
| 20260506172555 | 20 | 352 | 6.4 | 9.7 | 0.00 | 0.00 | 0.00 | 59 | 1017.9 |
| 20260506172055 | 20 | 326 | 8.0 | 14.5 | 0.00 | 0.00 | 0.00 | 58 | 1018.0 |
| 20260506171555 | 20 | 353 | 1.6 | 3.2 | 0.00 | 0.00 | 0.00 | 57 | 1018.1 |
| 20260506171058 | 20 | 309 | 3.2 | 6.4 | 0.00 | 0.00 | 0.00 | 57 | 1018.0 |
| 20260506170555 | 20 | 353 | 3.2 | 6.4 | 0.00 | 0.00 | 0.00 | 59 | 1018.0 |
| 20260506170054 | 19 | 143 | 1.6 | 3.2 | 0.00 | 0.00 | 0.00 | 60 | 1018.0 |
| 20260506165556 | 19 | 334 | 3.2 | 6.4 | 0.00 | 0.00 | 0.00 | 62 | 1018.0 |
| 20260506165054 | 19 | 327 | 3.2 | 8.0 | 0.00 | 0.00 | 0.00 | 61 | 1018.0 |
| 20260506164557 | 18 | 329 | 1.6 | 4.8 | 0.00 | 0.00 | 0.00 | 63 | 1017.9 |
| 20260506164054 | 18 | 4 | 6.4 | 11.3 | 0.00 | 0.00 | 0.00 | 62 | 1017.9 |
| 20260506163555 | 18 | 353 | 6.4 | 8.0 | 0.00 | 0.00 | 0.00 | 63 | 1018.0 |
| 20260506163054 | 18 | 352 | 3.2 | 6.4 | 0.00 | 0.00 | 0.00 | 62 | 1018.1 |
| 20260506162555 | 18 | 0 | 6.4 | 8.0 | 0.00 | 0.00 | 0.00 | 64 | 1018.1 |
| 20260506162055 | 18 | 345 | 4.8 | 6.4 | 0.00 | 0.00 | 0.00 | 65 | 1018.1 |
| 20260506161554 | 18 | 303 | 0.0 | 1.6 | 0.00 | 0.00 | 0.00 | 66 | 1018.1 |
| 20260506161055 | 18 | 91 | 4.8 | 9.7 | 0.00 | 0.00 | 0.00 | 64 | 1018.1 |
| 20260506160555 | 18 | 92 | 1.6 | 4.8 | 0.00 | 0.00 | 0.00 | 65 | 1018.1 |
| 20260506160055 | 17 | 160 | 1.6 | 4.8 | 0.00 | 0.00 | 0.00 | 67 | 1018.1 |
| 20260506155554 | 17 | 97 | 4.8 | 6.4 | 0.00 | 0.00 | 0.00 | 66 | 1018.1 |
| 20260506155055 | 17 | 117 | 3.2 | 8.0 | 0.00 | 0.00 | 0.00 | 67 | 1018.1 |
| 20260506154555 | 17 | 61 | 3.2 | 6.4 | 0.00 | 0.00 | 0.00 | 68 | 1018.0 |
| 20260506154054 | 17 | 44 | 4.8 | 9.7 | 0.00 | 0.00 | 0.00 | 69 | 1018.1 |
| 20260506153554 | 17 | 359 | 4.8 | 8.0 | 0.00 | 0.00 | 0.00 | 68 | 1018.1 |
| 20260506153054 | 17 | 37 | 4.8 | 6.4 | 0.00 | 0.00 | 0.00 | 68 | 1018.1 |
| 20260506152555 | 16 | 48 | 4.8 | 6.4 | 0.00 | 0.00 | 0.00 | 69 | 1018.1 |
| 20260506152055 | 16 | 36 | 3.2 | 6.4 | 0.00 | 0.00 | 0.00 | 70 | 1018.2 |
| 20260506151126 | 16 | 35 | 3.2 | 6.4 | 0.00 | 0.00 | 0.00 | 72 | 1018.2 |
| 20260506150555 | 16 | 2 | 4.8 | 6.4 | 0.00 | 0.00 | 0.00 | 72 | 1018.2 |
| 20260506150054 | 16 | 29 | 6.4 | 8.0 | 0.00 | 0.00 | 0.00 | 72 | 1018.2 |
| 20260506145555 | 15 | 12 | 4.8 | 6.4 | 0.00 | 0.00 | 0.00 | 73 | 1018.2 |
| 20260506145054 | 15 | 13 | 4.8 | 6.4 | 0.00 | 0.00 | 0.00 | 74 | 1018.1 |
| 20260506144554 | 15 | 41 | 3.2 | 4.8 | 0.00 | 0.00 | 0.00 | 75 | 1018.1 |
| 20260506144054 | 15 | 5 | 3.2 | 6.4 | 0.00 | 0.00 | 0.00 | 77 | 1018.0 |
| 20260506143556 | 15 | 30 | 3.2 | 4.8 | 0.00 | 0.00 | 0.00 | 76 | 1018.0 |
| 20260506143055 | 14 | 41 | 3.2 | 6.4 | 0.00 | 0.00 | 0.00 | 77 | 1018.0 |
| 20260506142554 | 14 | 25 | 3.2 | 4.8 | 0.00 | 0.00 | 0.00 | 78 | 1018.0 |
| 20260506142055 | 13 | 13 | 3.2 | 4.8 | 0.00 | 0.00 | 0.00 | 78 | 1018.0 |
| 20260506141554 | 13 | 37 | 4.8 | 8.0 | 0.00 | 0.00 | 0.00 | 79 | 1017.9 |
| 20260506141055 | 13 | 30 | 4.8 | 6.4 | 0.00 | 0.00 | 0.00 | 79 | 1017.9 |
| 20260506140555 | 13 | 21 | 4.8 | 6.4 | 0.00 | 0.00 | 0.00 | 80 | 1017.9 |
| 20260506140055 | 12 | 36 | 4.8 | 6.4 | 0.00 | 0.00 | 0.00 | 81 | 1017.9 |
| 20260506135554 | 12 | 31 | 3.2 | 4.8 | 0.00 | 0.00 | 0.00 | 84 | 1017.9 |
| 20260506135054 | 12 | 22 | 3.2 | 4.8 | 0.00 | 0.00 | 0.00 | 85 | 1017.8 |
| 20260506134554 | 12 | 24 | 3.2 | 4.8 | 0.00 | 0.00 | 0.00 | 85 | 1017.7 |
| 20260506134055 | 12 | 29 | 3.2 | 3.2 | 0.00 | 0.00 | 0.00 | 85 | 1017.7 |
| 20260506133555 | 12 | 24 | 3.2 | 4.8 | 0.00 | 0.00 | 0.00 | 84 | 1017.6 |
| 20260506133054 | 11 | 69 | 0.0 | 3.2 | 0.00 | 0.00 | 0.00 | 85 | 1017.5 |
| 20260506132554 | 11 | 58 | 3.2 | 6.4 | 0.00 | 0.00 | 0.00 | 87 | 1017.5 |
| 20260506132055 | 11 | 48 | 4.8 | 8.0 | 0.00 | 0.00 | 0.00 | 87 | 1017.5 |
| 20260506131555 | 11 | 28 | 3.2 | 6.4 | 0.00 | 0.00 | 0.00 | 88 | 1017.5 |
| 20260506131054 | 11 | 18 | 3.2 | 4.8 | 0.00 | 0.00 | 0.00 | 88 | 1017.4 |
| 20260506130558 | 11 | 20 | 3.2 | 4.8 | 0.00 | 0.00 | 0.00 | 88 | 1017.4 |
| 20260506130054 | 11 | 24 | 3.2 | 6.4 | 0.00 | 0.00 | 0.00 | 88 | 1017.4 |
| 20260506125554 | 11 | 19 | 3.2 | 6.4 | 0.00 | 0.00 | 0.00 | 88 | 1017.3 |
| 20260506125054 | 11 | 25 | 4.8 | 6.4 | 0.00 | 0.00 | 0.00 | 88 | 1017.2 |
| 20260506124555 | 11 | 24 | 3.2 | 4.8 | 0.00 | 0.00 | 0.00 | 88 | 1017.1 |
| 20260506124054 | 11 | 25 | 3.2 | 6.4 | 0.00 | 0.00 | 0.00 | 88 | 1017.2 |
| 20260506123555 | 11 | 36 | 3.2 | 4.8 | 0.00 | 0.00 | 0.00 | 88 | 1017.1 |
| 20260506123055 | 11 | 29 | 3.2 | 4.8 | 0.00 | 0.00 | 0.00 | 87 | 1017.1 |
| 20260506122554 | 11 | 42 | 4.8 | 6.4 | 0.00 | 0.00 | 0.00 | 87 | 1017.1 |
| 20260506122054 | 11 | 24 | 4.8 | 6.4 | 0.00 | 0.00 | 0.00 | 88 | 1017.1 |
| 20260506121554 | 11 | 0 | 3.2 | 4.8 | 0.00 | 0.00 | 0.00 | 87 | 1017.1 |
| 20260506120605 | 11 | 45 | 3.2 | 4.8 | 0.00 | 0.00 | 0.00 | 87 | 1017.0 |
| 20260506120059 | 11 | 38 | 3.2 | 4.8 | 0.00 | 0.00 | 0.00 | 87 | 1017.0 |
| 20260506115554 | 11 | 359 | 3.2 | 6.4 | 0.00 | 0.00 | 0.00 | 87 | 1017.0 |
| 20260506115054 | 11 | 350 | 3.2 | 4.8 | 0.00 | 0.00 | 0.00 | 87 | 1017.0 |
| 20260506114554 | 11 | 15 | 1.6 | 1.6 | 0.00 | 0.00 | 0.00 | 87 | 1016.9 |
| 20260506114054 | 11 | 0 | 0.0 | 0.0 | 0.00 | 0.00 | 0.00 | 86 | 1016.9 |
| 20260506113554 | 11 | 0 | 0.0 | 0.0 | 0.00 | 0.00 | 0.00 | 86 | 1016.9 |
| 20260506113055 | 11 | 4 | 1.6 | 3.2 | 0.00 | 0.00 | 0.00 | 86 | 1017.0 |
| 20260506112554 | 12 | 44 | 0.0 | 1.6 | 0.00 | 0.00 | 0.00 | 85 | 1016.9 |
| 20260506112054 | 12 | 16 | 0.0 | 1.6 | 0.00 | 0.00 | 0.00 | 85 | 1016.9 |
| 20260506111554 | 12 | 19 | 1.6 | 3.2 | 0.00 | 0.00 | 0.00 | 85 | 1016.9 |
| 20260506111055 | 12 | 4 | 3.2 | 3.2 | 0.00 | 0.00 | 0.00 | 85 | 1016.9 |
| 20260506110554 | 12 | 3 | 0.0 | 1.6 | 0.00 | 0.00 | 0.00 | 84 | 1016.9 |
| 20260506110054 | 12 | 36 | 3.2 | 3.2 | 0.00 | 0.00 | 0.00 | 84 | 1016.9 |
| 20260506105554 | 12 | 30 | 1.6 | 3.2 | 0.00 | 0.00 | 0.00 | 83 | 1016.9 |
| 20260506105055 | 12 | 16 | 3.2 | 4.8 | 0.00 | 0.00 | 0.00 | 82 | 1017.0 |
| 20260506104554 | 12 | 27 | 3.2 | 4.8 | 0.00 | 0.00 | 0.00 | 83 | 1017.0 |
| 20260506104054 | 12 | 40 | 4.8 | 6.4 | 0.00 | 0.00 | 0.00 | 83 | 1017.0 |
| 20260506103554 | 12 | 17 | 3.2 | 6.4 | 0.00 | 0.00 | 0.00 | 82 | 1016.9 |
| 20260506103055 | 12 | 49 | 3.2 | 4.8 | 0.00 | 0.00 | 0.00 | 82 | 1016.9 |
| 20260506102554 | 12 | 42 | 3.2 | 4.8 | 0.00 | 0.00 | 0.00 | 83 | 1016.9 |
| 20260506102054 | 12 | 22 | 3.2 | 3.2 | 0.00 | 0.00 | 0.00 | 82 | 1016.8 |
| 20260506101554 | 12 | 23 | 3.2 | 3.2 | 0.00 | 0.00 | 0.00 | 81 | 1016.8 |
| 20260506101056 | 12 | 39 | 3.2 | 6.4 | 0.00 | 0.00 | 0.00 | 82 | 1017.1 |
| 20260506100554 | 12 | 2 | 1.6 | 3.2 | 0.00 | 0.00 | 0.00 | 83 | 1017.1 |
| 20260506100055 | 12 | 39 | 0.0 | 3.2 | 0.00 | 0.00 | 0.00 | 83 | 1017.1 |
| 20260506095555 | 12 | 48 | 1.6 | 3.2 | 0.00 | 0.00 | 0.00 | 84 | 1017.1 |
| 20260506095055 | 12 | 40 | 0.0 | 1.6 | 0.00 | 0.00 | 0.00 | 84 | 1017.1 |
| 20260506094554 | 12 | 0 | 0.0 | 0.0 | 0.00 | 0.00 | 0.00 | 84 | 1017.1 |
| 20260506094054 | 12 | 0 | 0.0 | 0.0 | 0.00 | 0.00 | 0.00 | 84 | 1017.1 |
| 20260506093555 | 12 | 41 | 0.0 | 3.2 | 0.00 | 0.00 | 0.00 | 84 | 1017.1 |
| 20260506093054 | 11 | 61 | 0.0 | 3.2 | 0.00 | 0.00 | 0.00 | 85 | 1017.1 |
| 20260506092555 | 11 | 91 | 0.0 | 1.6 | 0.00 | 0.00 | 0.00 | 85 | 1017.1 |
| 20260506092055 | 11 | 35 | 1.6 | 3.2 | 0.00 | 0.00 | 0.00 | 85 | 1017.1 |
| 20260506091554 | 11 | 2 | 0.0 | 1.6 | 0.00 | 0.00 | 0.00 | 85 | 1017.0 |
| 20260506091054 | 12 | 44 | 1.6 | 1.6 | 0.00 | 0.00 | 0.00 | 85 | 1017.1 |
| 20260506090554 | 12 | 0 | 0.0 | 0.0 | 0.00 | 0.00 | 0.00 | 84 | 1017.1 |
| 20260506090054 | 12 | 0 | 0.0 | 0.0 | 0.00 | 0.00 | 0.00 | 84 | 1017.2 |
| 20260506085557 | 12 | 0 | 0.0 | 0.0 | 0.00 | 0.00 | 0.00 | 84 | 1017.3 |
| 20260506085055 | 12 | 32 | 1.6 | 1.6 | 0.00 | 0.00 | 0.00 | 83 | 1017.4 |
| 20260506084554 | 12 | 11 | 1.6 | 1.6 | 0.00 | 0.00 | 0.00 | 83 | 1017.4 |
| 20260506084055 | 12 | 356 | 0.0 | 1.6 | 0.00 | 0.00 | 0.00 | 83 | 1017.5 |
| 20260506083554 | 12 | 43 | 1.6 | 3.2 | 0.00 | 0.00 | 0.00 | 83 | 1017.6 |
| 20260506083055 | 12 | 43 | 0.0 | 1.6 | 0.00 | 0.00 | 0.00 | 83 | 1017.7 |
| 20260506082554 | 12 | 40 | 1.6 | 3.2 | 0.00 | 0.00 | 0.00 | 83 | 1017.7 |
| 20260506082055 | 12 | 23 | 1.6 | 3.2 | 0.00 | 0.00 | 0.00 | 83 | 1017.7 |
| 20260506081555 | 12 | 33 | 3.2 | 4.8 | 0.00 | 0.00 | 0.00 | 83 | 1017.7 |
| 20260506081054 | 12 | 30 | 3.2 | 3.2 | 0.00 | 0.00 | 0.00 | 83 | 1017.7 |
| 20260506080554 | 12 | 24 | 1.6 | 3.2 | 0.00 | 0.00 | 0.00 | 83 | 1017.7 |
| 20260506073055 | 12 | 49 | 3.2 | 4.8 | 0.00 | 0.00 | 0.00 | 83 | 1017.9 |
| 20260506072554 | 12 | 15 | 0.0 | 1.6 | 0.00 | 0.00 | 0.00 | 83 | 1017.9 |
| 20260506072054 | 12 | 14 | 0.0 | 1.6 | 0.00 | 0.00 | 0.00 | 83 | 1017.9 |
| 20260506071554 | 12 | 46 | 0.0 | 1.6 | 0.00 | 0.00 | 0.00 | 83 | 1017.9 |
| 20260506071055 | 12 | 10 | 0.0 | 1.6 | 0.00 | 0.00 | 0.00 | 83 | 1017.9 |
| 20260506070554 | 12 | 39 | 0.0 | 1.6 | 0.00 | 0.00 | 0.00 | 82 | 1017.8 |
| 20260506062054 | 13 | 43 | 0.0 | 0.0 | 0.00 | 0.00 | 0.79 | 81 | 1017.5 |
| 20260506061555 | 13 | 0 | 0.0 | 0.0 | 0.00 | 0.00 | 0.79 | 80 | 1017.5 |
| 20260506061054 | 13 | 0 | 0.0 | 0.0 | 0.00 | 0.00 | 0.79 | 79 | 1017.5 |
| 20260506060555 | 13 | 47 | 0.0 | 1.6 | 0.00 | 0.00 | 0.79 | 78 | 1017.6 |
| 20260506051054 | 13 | 3 | 1.6 | 3.2 | 0.00 | 0.00 | 0.79 | 77 | 1017.6 |
| 20260506050554 | 13 | 0 | 0.0 | 0.0 | 0.00 | 0.00 | 0.79 | 77 | 1017.6 |
| 20260506045054 | 13 | 113 | 0.0 | 1.6 | 0.00 | 0.00 | 0.79 | 77 | 1017.4 |
| 20260506044554 | 13 | 0 | 0.0 | 0.0 | 0.00 | 0.00 | 0.79 | 78 | 1017.3 |
| 20260506044054 | 13 | 103 | 0.0 | 1.6 | 0.00 | 0.00 | 0.79 | 77 | 1017.2 |
| 20260506043555 | 13 | 93 | 0.0 | 1.6 | 0.00 | 0.00 | 0.79 | 78 | 1017.1 |
| 20260506043054 | 13 | 0 | 0.0 | 0.0 | 0.00 | 0.00 | 0.79 | 78 | 1017.1 |
| 20260506042554 | 13 | 0 | 0.0 | 0.0 | 0.00 | 0.00 | 0.79 | 77 | 1017.1 |
| 20260506042055 | 13 | 0 | 0.0 | 0.0 | 0.00 | 0.00 | 0.79 | 77 | 1017.0 |
| 20260506041554 | 13 | 41 | 0.0 | 3.2 | 0.00 | 0.00 | 0.79 | 77 | 1017.0 |
| 20260506041054 | 13 | 12 | 0.0 | 1.6 | 0.00 | 0.00 | 0.79 | 77 | 1016.9 |
| 20260506040554 | 13 | 13 | 0.0 | 1.6 | 0.00 | 0.00 | 0.79 | 76 | 1016.8 |
| 20260506040054 | 13 | 0 | 0.0 | 0.0 | 0.00 | 0.00 | 0.79 | 76 | 1016.8 |
| 20260506035554 | 13 | 55 | 0.0 | 0.0 | 0.00 | 0.00 | 0.79 | 75 | 1016.6 |
| 20260506035054 | 14 | 0 | 0.0 | 0.0 | 0.00 | 0.00 | 0.79 | 75 | 1016.6 |
| 20260506034554 | 14 | 7 | 0.0 | 1.6 | 0.00 | 0.00 | 0.79 | 74 | 1016.5 |
| 20260506034055 | 14 | 0 | 0.0 | 0.0 | 0.00 | 0.00 | 0.79 | 73 | 1016.5 |
| 20260506033554 | 14 | 0 | 0.0 | 0.0 | 0.00 | 0.00 | 0.79 | 73 | 1016.4 |
| 20260506033054 | 15 | 5 | 0.0 | 1.6 | 0.00 | 0.00 | 0.79 | 72 | 1016.3 |
| 20260506032554 | 15 | 347 | 0.0 | 1.6 | 0.00 | 0.00 | 0.79 | 72 | 1016.2 |
| 20260506032054 | 15 | 345 | 0.0 | 1.6 | 0.00 | 0.00 | 0.79 | 72 | 1016.2 |
| 20260506031554 | 15 | 334 | 0.0 | 1.6 | 0.00 | 0.00 | 0.79 | 72 | 1016.2 |
| 20260506031054 | 15 | 348 | 0.0 | 1.6 | 0.00 | 0.00 | 0.79 | 73 | 1016.1 |
| 20260506030554 | 15 | 358 | 1.6 | 3.2 | 0.00 | 0.00 | 0.79 | 72 | 1016.0 |
| 20260506030054 | 15 | 320 | 1.6 | 3.2 | 0.00 | 0.00 | 0.79 | 72 | 1016.0 |
| 20260506025554 | 15 | 342 | 0.0 | 3.2 | 0.00 | 0.00 | 0.79 | 72 | 1015.9 |
| 20260506025054 | 15 | 346 | 0.0 | 3.2 | 0.00 | 0.00 | 0.79 | 72 | 1015.8 |
| 20260506024554 | 15 | 342 | 1.6 | 4.8 | 0.00 | 0.00 | 0.79 | 71 | 1015.8 |
| 20260506024054 | 15 | 331 | 1.6 | 1.6 | 0.00 | 0.00 | 0.79 | 71 | 1015.7 |
| 20260506023554 | 15 | 354 | 0.0 | 1.6 | 0.00 | 0.00 | 0.79 | 70 | 1015.6 |
| 20260506023054 | 15 | 339 | 1.6 | 3.2 | 0.00 | 0.00 | 0.79 | 70 | 1015.5 |
| 20260506022554 | 16 | 337 | 4.8 | 9.7 | 0.00 | 0.00 | 0.79 | 69 | 1015.5 |
| 20260506022054 | 16 | 352 | 1.6 | 3.2 | 0.00 | 0.00 | 0.79 | 69 | 1015.4 |
| 20260506021554 | 16 | 333 | 1.6 | 3.2 | 0.00 | 0.00 | 0.79 | 68 | 1015.4 |